Fort Stockton, TX

10:40 PM CDT on April 23, 2018 (GMT -0500)
Fort Stockton-Pecos County

Weather History for KFST - June, 2012

Change the Weather History Date:

Friday, June 15, 2012

  Actual Average Record
Temperature  
Mean Temperature 82 °F -  
Max Temperature 95 °F 92 °F 108 °F (2011)
Min Temperature 71 °F 66 °F 62 °F (1999)
Cooling Degree Days 17    
Growing Degree Days 32 (Base 50)    
Moisture  
Dew Point 57 °F    
Average Humidity 44    
Maximum Humidity 66    
Minimum Humidity 27    
Precipitation  
Precipitation 0.00 in - - ()
Sea Level Pressure  
Sea Level Pressure 29.77 in    
Wind  
Wind Speed 17 mph (SSE)    
Max Wind Speed 25 mph    
Max Gust Speed 34 mph    
Visibility 10 miles    
Events      
Averages and records for this station are not official NWS values.
T = Trace of Precipitation, MM = Missing Value Source: NWS Daily Summary

Daily Weather History Graph

Daily Weather History Graph

Search for Another Location

Airport or City:

Astronomy

Jun. 15, 2012 Rise Set
Actual Time 6:47 AM CDT 8:56 PM CDT
Civil Twilight 6:20 AM CDT 9:24 PM CDT
Nautical Twilight 5:46 AM CDT 9:58 PM CDT
Astronomical Twilight 5:09 AM CDT 10:34 PM CDT
Moon 3:54 AM CDT (6/15) 5:45 PM CDT (6/15)
Length of Visible Light 15h 04m
Length of Day
14h 08m
Waning Crescent, 13% of the Moon is Illuminated
Jun 15
Waning Crescent
Jun 19
New
Jun 26
First Quarter
Jul 3
Full
Jul 10
Last Quarter

Hourly Weather History & Observations

Time (CDT) Temp. Heat Index Dew Point Humidity Pressure Visibility Wind Dir Wind Speed Gust Speed Precip Events Conditions
12:53 AM 75.9 °F - 55.9 °F 50% 29.71 in 10.0 mi SSE 25.3 mph 34.5 mph N/A   Clear
1:53 AM 77.0 °F - 54.0 °F 45% 29.69 in 10.0 mi South 20.7 mph 29.9 mph N/A   Clear
2:53 AM 75.9 °F - 55.0 °F 48% 29.70 in 10.0 mi SW 18.4 mph - N/A   Clear
3:53 AM 75.9 °F - 53.1 °F 45% 29.68 in 10.0 mi SW 24.2 mph 29.9 mph N/A   Clear
4:53 AM 75.0 °F - 53.1 °F 46% 29.69 in 10.0 mi SW 18.4 mph - N/A   Clear
5:53 AM 75.0 °F - 53.1 °F 46% 29.76 in 10.0 mi SE 10.4 mph - N/A   Clear
6:14 AM 73.4 °F - 55.4 °F 53% 29.90 in 10.0 mi ESE 11.5 mph - N/A   Clear
7:53 AM 71.1 °F - 59.0 °F 66% 29.81 in 10.0 mi SE 10.4 mph - N/A   Clear
8:53 AM 73.9 °F - 61.0 °F 64% 29.81 in 10.0 mi SE 10.4 mph - N/A   Clear
9:53 AM 78.1 °F - 63.0 °F 60% 29.81 in 10.0 mi SE 15.0 mph 23.0 mph N/A   Clear
10:53 AM 81.0 °F 82.2 °F 63.0 °F 54% 29.81 in 10.0 mi SSE 17.3 mph 23.0 mph N/A   Clear
11:53 AM 84.9 °F 85.4 °F 62.1 °F 46% 29.80 in 10.0 mi SE 18.4 mph 25.3 mph N/A   Clear
12:53 PM 89.1 °F 88.8 °F 60.1 °F 38% 29.80 in 10.0 mi South 18.4 mph 24.2 mph N/A   Clear
1:53 PM 91.9 °F 90.6 °F 57.0 °F 31% 29.78 in 10.0 mi SSE 15.0 mph 20.7 mph N/A   Clear
2:53 PM 93.9 °F 92.0 °F 55.0 °F 27% 29.77 in 10.0 mi SSE 13.8 mph 20.7 mph N/A   Clear
3:53 PM 93.9 °F 92.9 °F 57.9 °F 30% 29.75 in 10.0 mi SSE 15.0 mph 24.2 mph N/A   Clear
4:53 PM 93.0 °F 91.7 °F 57.0 °F 30% 29.73 in 10.0 mi SSE 16.1 mph 20.7 mph N/A   Clear
5:53 PM 91.0 °F 89.7 °F 57.0 °F 32% 29.72 in 10.0 mi SSE 13.8 mph - N/A   Clear
6:53 PM 91.0 °F 88.9 °F 55.0 °F 29% 29.73 in 10.0 mi SE 17.3 mph 27.6 mph N/A   Clear
7:53 PM 88.0 °F 86.1 °F 55.0 °F 32% 29.76 in 10.0 mi SSE 17.3 mph 24.2 mph N/A   Clear
8:53 PM 84.9 °F 83.9 °F 57.0 °F 38% 29.80 in 10.0 mi South 13.8 mph - N/A   Clear
9:53 PM 80.1 °F 80.4 °F 57.0 °F 45% 29.81 in 10.0 mi SSW 5.8 mph - N/A   Clear
10:53 PM 77.0 °F - 57.9 °F 52% 29.81 in 10.0 mi South 5.8 mph - N/A   Clear
11:53 PM 78.1 °F - 55.0 °F 45% 29.83 in 10.0 mi South 5.8 mph - N/A   Clear